Wetbulb
31.31 26.57 24.49 26.48 29.09 29.01 27.20 25.74 24.52 27.53 31.17 28.80 27.73 28.03 30.96 34.29 34.49 33.26 34.04 36.65 38.05 39.40 42.13 42.54 43.43 44.07 44.68 45.80 50.77 59.56 61.70 62.65 63.21 62.46 61.22 60.83 60.13 61.94 61.93 62.15 61.59 60.76 60.06 58.63
26.37 24.31 28.63 31.20 30.29 28.65 28.01 26.07 24.63 28.12 30.17 28.99 27.76 26.96 31.27 32.93 32.63 34.30 36.19 37.77 38.57 39.43 40.28 41.06 41.80 42.66 42.77 43.30 44.85 45.95 57.54 61.99 62.82 63.07 62.70 61.85 60.99 61.17 61.63 61.68 61.01 60.49 59.80 58.80
24.27 25.99 31.04 28.98 27.72 28.25 27.61 25.99 25.44 25.10 27.88 28.98 27.87 25.60 27.13 32.05 32.86 36.44 39.01 39.59 39.91 39.47 38.98 39.45 39.90 40.83 41.76 41.84 42.87 44.30 45.38 49.28 62.20 63.01 62.94 62.01 59.71 55.60 56.27 59.18 58.68 58.29 58.94 58.43
24.96 29.13 27.91 27.41 27.39 29.00 23.85 28.76 26.95 25.71 24.55 17.52 28.14 15.59 25.66 29.02 30.05 35.78 37.50 37.23 36.46 37.89 39.56 39.16 38.93 39.40 40.40 41.66 43.08 42.92 43.94 45.55 54.58 62.44 62.04 57.81 57.13 55.71 57.83 57.00 57.42 57.01 57.74 57.82
23.56 24.88 25.75 25.96 27.33 29.74 25.82 28.23 26.65 26.33 24.00 24.08 23.97 21.27 24.09 29.15 29.45 34.19 34.26 35.97 36.91 37.90 37.71 37.90 37.91 38.91 40.15 41.60 41.41 42.61 42.56 44.00 48.99 59.68 61.75 58.77 58.98 59.18 58.14 54.48 51.37 50.71 52.06 55.07
24.72 27.81 27.72 27.81 29.78 28.59 29.34 27.15 26.45 25.58 24.97 15.27 20.80 22.50 22.37 25.77 31.50 32.66 34.26 35.67 36.20 36.64 37.58 38.00 38.18 38.54 38.92 40.31 40.73 41.34 41.44 42.46 46.34 56.84 60.29 58.86 59.11 56.56 49.84 49.33 48.43 46.85 48.17 48.62
21.48 23.14 25.91 28.49 24.80 27.96 27.37 23.31 8.63 8.29 7.39 10.48 23.77 21.59 23.94 30.58 34.56 33.25 33.45 35.79 35.58 37.34 35.98 36.01 35.68 35.91 36.69 37.39 38.55 40.06 40.91 40.89 43.86 46.71 58.67 58.81 59.07 51.89 50.85 49.78 48.98 45.68 44.20 44.02
12.36 13.86 23.35 27.50 24.75 23.11 24.48 23.42 8.95 1.82 6.90 14.52 25.08 18.07 24.58 34.29 35.46 35.95 37.23 37.17 36.82 36.05 35.41 34.43 34.08 34.12 34.56 35.75 37.35 38.75 39.51 39.89 42.16 45.69 52.63 57.89 58.16 52.26 51.93 50.46 49.41 47.59 46.41 44.85
11.17 15.74 24.51 26.12 26.62 26.57 21.39 14.78 25.69 21.76 13.30 16.14 20.71 24.89 29.91 33.84 33.40 35.17 35.57 34.67 33.77 34.46 33.47 32.13 32.43 32.95 33.49 35.06 36.27 37.78 38.78 39.62 40.87 43.14 45.92 56.99 54.42 52.10 50.48 50.35 48.45 46.69 44.20 41.36
19.83 9.38 22.58 24.80 26.63 27.97 24.39 27.49 15.51 13.05 7.39 7.37 16.98 20.77 22.50 28.39 30.87 33.16 32.24 31.66 33.40 31.23 30.72 30.65 30.98 31.79 33.03 35.22 36.50 37.82 38.98 39.35 40.75 42.86 44.24 55.55 51.63 50.07 48.06 45.63 41.47 39.67 39.06 38.55
23.69 17.50 18.06 21.79 21.63 20.20 17.17 14.08 18.06 23.30 21.14 13.06 13.46 19.21 29.27 30.66 32.30 31.08 30.83 32.38 29.53 28.95 29.08 29.31 30.06 31.38 33.81 35.20 36.55 37.93 39.11 39.77 40.64 42.73 44.24 47.97 44.00 41.53 39.50 37.70 36.93 36.38 36.22 36.03
25.43 18.39 11.48 15.85 21.30 22.55 23.70 19.48 18.98 10.99 14.47 19.61 18.55 17.59 32.01 33.58 33.91 31.56 30.41 29.04 28.43 28.29 28.18 29.01 29.76 31.81 33.40 34.97 36.25 37.02 38.61 40.30 41.69 44.54 43.22 40.48 38.80 37.16 35.01 33.52 33.71 34.45 33.24 33.75
22.28 10.02 1.92 11.37 17.90 21.55 20.67 24.25 24.88 16.22 18.43 15.40 14.74 17.26 34.61 34.24 31.83 31.04 30.09 27.69 27.11 27.48 27.33 28.19 29.56 30.69 32.53 33.45 34.09 34.84 36.77 39.21 41.96 40.15 39.06 36.76 34.71 33.84 33.08 33.18 33.57 33.79 33.43 33.05
28.84 15.31 7.11 8.25 14.92 16.63 16.74 20.19 21.98 14.94 12.78 18.07 19.64 22.46 29.06 29.97 28.26 29.19 27.95 27.23 26.77 26.87 27.20 27.19 28.41 29.41 31.66 32.53 32.91 33.72 37.17 38.68 36.91 36.16 35.28 34.23 33.50 33.40 33.22 32.94 33.28 33.52 34.01 33.99
24.84 8.47 11.00 14.87 18.31 18.13 18.00 17.83 19.32 16.40 18.59 16.91 19.58 22.36 26.35 28.10 27.79 29.44 27.82 26.57 25.70 25.14 25.31 25.89 26.83 27.54 29.57 30.95 31.79 32.30 32.82 33.88 34.64 33.65 32.77 32.63 33.37 33.41 32.96 32.58 33.07 33.46 32.94 31.95
23.68 8.90 17.57 10.12 17.66 19.16 16.20 19.11 19.54 20.31 20.27 21.71 22.21 24.07 30.61 29.82 30.63 28.09 26.35 25.08 23.99 23.76 24.21 25.01 26.06 26.84 27.43 29.78 30.69 31.43 31.73 32.16 33.00 32.30 31.66 32.22 32.44 32.50 32.23 31.95 31.28 29.75 28.62 28.04
19.18 13.78 5.69 0.96 13.60 13.23 10.11 19.77 23.73 21.21 22.93 21.39 20.89 26.20 29.66 26.80 28.84 27.57 25.55 24.85 24.04 23.78 23.92 24.40 25.01 25.95 26.94 27.61 29.89 29.77 30.85 31.79 31.44 31.15 31.40 31.41 30.88 29.67 29.04 28.66 27.96 26.98 26.52 26.81
17.18 16.64 8.41 2.04 3.53 4.40 21.54 21.05 22.92 21.49 23.61 25.89 27.88 29.28 27.02 28.73 30.64 30.29 28.39 26.00 24.58 24.12 23.69 24.43 24.98 25.39 26.47 27.56 27.86 28.86 28.87 28.30 27.87 27.73 27.97 28.44 27.78 26.87 26.94 26.73 26.31 26.26 26.57 26.20
27.02 21.47 1.67 -2.64 0.74 11.79 20.21 23.05 23.23 20.91 22.30 29.08 26.45 25.98 27.89 30.59 30.69 30.59 28.78 28.34 26.10 24.93 25.06 25.18 26.02 25.80 26.10 26.03 26.88 26.71 26.64 26.68 26.06 25.89 26.18 26.65 26.80 26.12 26.03 25.33 25.34 25.93 25.83 26.10
25.01 23.64 5.49 -3.79 -6.76 0.80 19.25 23.49 26.39 27.62 18.32 27.59 25.64 24.50 27.69 29.51 24.11 24.85 28.49 28.21 26.65 25.93 26.48 25.25 26.26 26.42 25.72 26.15 26.80 25.51 24.78 24.72 24.38 25.20 25.84 26.82 26.91 26.15 25.38 25.74 25.76 26.41 26.54 26.07
10.43 15.37 6.99 3.71 -1.26 6.01 19.14 22.96 27.33 13.81 20.27 27.12 24.90 26.36 28.55 27.80 26.91 28.80 28.84 28.06 27.76 26.24 26.15 26.09 25.12 24.98 25.79 26.43 26.05 24.34 24.38 23.69 25.46 26.23 26.13 26.03 26.31 25.69 25.83 25.79 25.93 25.34 24.84 24.46
8.92 8.86 2.51 1.19 0.75 4.01 20.18 23.82 21.85 25.17 27.21 26.14 24.45 27.19 28.86 30.80 30.31 27.14 27.81 27.90 26.78 25.54 24.69 25.40 24.17 23.40 24.87 26.91 26.03 24.07 23.18 25.41 26.14 25.81 25.08 24.82 25.20 25.60 24.94 24.13 23.86 23.71 23.36 22.45
8.99 14.95 10.98 12.32 13.48 23.09 22.63 24.58 27.82 28.20 27.56 25.73 24.91 27.15 29.42 30.65 29.34 28.47 27.22 27.73 26.74 25.60 25.12 24.97 24.59 23.78 23.63 23.96 24.73 22.39 23.58 24.79 24.37 23.75 23.13 23.12 23.58 23.93 24.02 22.94 21.99 21.75 22.28 21.72
15.15 17.78 16.02 17.28 20.68 21.80 24.98 26.31 26.19 27.98 27.62 27.12 27.11 28.18 30.09 30.14 29.49 28.37 28.11 27.25 25.34 23.80 22.71 21.50 21.71 20.52 20.17 21.61 21.99 21.87 22.17 23.17 22.81 21.57 21.36 21.77 21.42 21.03 21.28 21.77 21.61 21.36 20.63 20.14
15.60 17.52 12.95 14.93 21.04 22.71 24.50 24.46 27.46 27.35 26.80 26.40 27.16 27.39 30.56 30.26 28.93 28.66 27.38 26.47 25.35 22.86 22.34 21.40 20.14 19.85 19.05 19.15 18.90 19.01 20.26 20.86 20.27 19.89 19.72 19.78 19.65 19.48 18.82 19.01 18.98 18.58 18.89 20.93
16.70 16.44 17.17 17.70 22.36 23.04 23.10 23.61 23.72 26.26 24.96 25.05 25.57 25.69 28.24 29.64 28.95 27.96 26.58 26.42 25.65 23.54 22.70 19.73 19.43 18.77 18.01 16.96 16.44 16.36 16.75 18.43 19.06 18.72 18.54 18.69 19.02 19.18 19.44 19.64 19.67 24.63 24.59 24.77
MSLP
1021.53 1021.91 1022.60 1022.90 1022.90 1022.72 1022.81 1022.76 1022.12 1021.01 1019.92 1019.46 1018.13 1016.82 1014.28 1013.56 1013.44 1013.31 1013.65 1013.43 1013.10 1012.62 1011.94 1011.39 1010.70 1010.13 1009.40 1008.68 1007.95 1007.32 1006.98 1006.82 1007.15 1007.40 1008.01 1008.22 1008.21 1009.72 1010.52 1011.19 1011.71 1012.36 1013.03 1013.84
1022.50 1022.81 1022.83 1022.74 1022.56 1022.52 1022.45 1022.31 1021.68 1020.44 1019.76 1019.92 1018.21 1015.96 1014.06 1013.85 1013.41 1013.29 1013.30 1013.24 1012.91 1012.41 1011.85 1011.20 1010.66 1010.29 1009.90 1009.34 1008.70 1007.98 1007.03 1006.32 1006.23 1006.45 1006.83 1007.38 1006.80 1008.37 1009.18 1010.29 1011.09 1011.64 1012.38 1013.13
1023.58 1023.30 1023.05 1022.89 1022.53 1022.34 1022.17 1022.15 1021.72 1021.78 1020.18 1019.10 1018.44 1016.07 1014.35 1013.41 1013.36 1013.30 1013.08 1012.76 1012.83 1012.52 1011.72 1011.24 1010.74 1010.34 1010.01 1009.45 1008.96 1008.33 1007.75 1007.18 1005.66 1005.68 1005.94 1006.56 1007.38 1008.30 1008.90 1009.52 1010.18 1010.79 1011.47 1012.38
1023.64 1023.47 1023.33 1022.90 1022.58 1022.60 1022.12 1021.85 1021.93 1021.72 1021.68 1020.78 1019.44 1018.01 1014.86 1013.66 1013.40 1013.24 1013.28 1012.69 1012.24 1012.03 1011.60 1011.48 1010.88 1010.22 1009.82 1009.38 1008.89 1008.44 1007.77 1007.11 1005.97 1004.95 1005.23 1005.61 1006.19 1007.33 1007.87 1008.53 1009.34 1009.91 1010.22 1011.39
1024.03 1023.88 1023.72 1023.02 1022.70 1022.57 1022.16 1021.86 1021.69 1021.59 1021.69 1021.34 1019.75 1019.28 1014.62 1013.61 1013.31 1013.05 1012.93 1012.44 1012.06 1011.75 1011.57 1011.09 1010.74 1010.23 1009.56 1009.06 1008.67 1008.18 1007.59 1006.85 1005.89 1004.68 1004.40 1004.87 1005.51 1006.21 1007.19 1008.32 1009.25 1010.03 1010.37 1010.88
1024.67 1024.29 1024.19 1023.45 1022.84 1022.71 1022.60 1022.03 1021.73 1021.97 1022.05 1021.65 1019.54 1018.80 1014.85 1013.67 1012.97 1012.90 1012.69 1012.23 1011.81 1011.55 1011.13 1010.80 1010.34 1009.92 1009.25 1008.74 1008.27 1007.82 1007.30 1006.40 1005.73 1004.41 1003.88 1004.22 1004.86 1005.64 1006.98 1008.05 1009.10 1009.95 1010.62 1010.76
1025.53 1024.64 1024.20 1023.82 1023.41 1023.01 1023.33 1023.62 1023.99 1023.50 1022.97 1021.34 1019.29 1018.19 1014.56 1013.24 1012.92 1012.60 1012.28 1011.86 1011.76 1011.33 1010.96 1010.44 1010.12 1009.60 1008.95 1008.37 1007.78 1007.37 1006.89 1006.05 1005.35 1004.58 1003.63 1003.76 1004.22 1005.15 1006.17 1007.40 1008.37 1009.53 1010.23 1010.93
1028.14 1025.28 1024.84 1024.52 1024.37 1024.31 1024.54 1025.06 1025.99 1025.87 1024.01 1021.40 1018.82 1016.93 1013.62 1012.55 1012.48 1012.50 1012.38 1011.73 1011.35 1010.93 1010.66 1010.27 1009.83 1009.34 1008.70 1007.96 1007.25 1006.82 1006.49 1005.79 1005.17 1004.46 1003.63 1003.35 1003.69 1004.57 1005.55 1006.79 1007.69 1008.70 1009.47 1010.10
1028.76 1026.97 1025.36 1024.90 1024.61 1024.77 1024.85 1025.29 1025.29 1025.14 1024.05 1022.40 1018.39 1015.48 1013.28 1012.53 1012.43 1012.03 1012.26 1012.25 1011.54 1011.00 1010.65 1010.01 1009.38 1008.93 1008.24 1007.42 1006.74 1006.19 1005.78 1005.30 1004.86 1004.44 1003.81 1002.90 1003.53 1004.33 1005.19 1006.35 1007.34 1008.39 1009.36 1010.24
1029.19 1028.86 1026.19 1025.37 1024.90 1024.79 1024.94 1025.51 1025.71 1025.66 1024.70 1022.36 1018.27 1015.64 1013.36 1012.80 1012.76 1012.80 1012.74 1012.25 1011.71 1011.56 1010.76 1010.13 1009.32 1008.52 1007.73 1006.75 1006.01 1005.50 1005.14 1004.66 1004.29 1004.13 1003.74 1002.77 1003.43 1004.36 1005.39 1006.42 1007.78 1008.93 1010.03 1011.15
1029.18 1029.88 1027.07 1026.04 1025.42 1025.35 1025.66 1025.79 1025.98 1025.91 1025.10 1023.34 1019.47 1015.13 1013.14 1013.29 1013.43 1012.96 1012.84 1012.45 1012.32 1011.63 1010.94 1010.01 1009.03 1008.13 1007.14 1006.10 1005.37 1004.75 1004.34 1004.13 1003.90 1003.69 1003.41 1002.96 1003.87 1005.12 1006.39 1007.27 1008.39 1009.42 1010.51 1011.50
1029.34 1029.98 1029.15 1026.93 1025.83 1025.82 1025.95 1026.08 1026.22 1026.28 1025.32 1023.81 1021.52 1015.81 1013.21 1013.17 1013.38 1013.49 1013.22 1013.15 1012.68 1012.06 1011.17 1010.05 1008.91 1007.71 1006.54 1005.66 1004.97 1004.42 1004.03 1003.69 1003.45 1003.45 1003.46 1003.64 1004.58 1005.66 1007.07 1008.09 1009.11 1010.06 1011.15 1012.04
1029.30 1030.18 1029.84 1027.75 1026.80 1026.10 1026.09 1026.01 1026.12 1026.33 1025.85 1023.75 1021.82 1016.12 1013.29 1013.57 1013.91 1013.97 1013.67 1013.56 1013.03 1012.16 1011.27 1010.19 1008.90 1007.71 1006.55 1005.63 1004.85 1004.14 1003.54 1003.21 1003.20 1003.36 1004.06 1004.35 1005.32 1006.36 1007.83 1008.72 1009.75 1010.75 1011.81 1012.86
1029.11 1030.39 1030.45 1029.21 1027.50 1027.09 1026.47 1026.06 1026.04 1026.51 1025.92 1023.34 1020.62 1017.20 1014.63 1014.39 1014.53 1014.10 1014.22 1014.10 1013.41 1012.69 1011.72 1010.67 1009.32 1008.13 1006.93 1005.93 1005.01 1004.13 1002.87 1003.07 1003.79 1004.13 1005.04 1005.27 1006.18 1007.27 1008.56 1009.50 1010.41 1011.12 1012.41 1013.52
1029.51 1030.61 1030.59 1029.27 1028.03 1027.68 1026.58 1025.50 1025.21 1025.40 1023.95 1023.38 1019.44 1018.23 1016.17 1015.73 1015.32 1014.99 1015.16 1014.54 1013.80 1013.02 1012.14 1011.15 1009.99 1008.87 1007.67 1006.58 1005.77 1005.00 1004.61 1004.50 1004.94 1005.30 1006.22 1006.76 1007.26 1008.23 1009.28 1010.34 1011.91 1012.12 1012.82 1014.22
1030.05 1030.78 1031.03 1029.56 1028.12 1027.20 1025.89 1024.25 1023.63 1023.35 1022.86 1021.94 1020.19 1017.93 1016.68 1016.12 1015.86 1015.69 1015.57 1015.08 1014.41 1013.71 1013.07 1012.03 1011.05 1009.92 1008.80 1007.78 1007.00 1006.49 1006.26 1006.14 1006.36 1006.77 1007.63 1008.40 1008.25 1009.41 1010.51 1011.40 1012.58 1013.63 1015.18 1015.81
1030.44 1031.48 1032.13 1030.73 1028.86 1027.17 1025.11 1022.05 1021.73 1021.47 1020.93 1020.48 1019.58 1017.58 1016.77 1016.35 1016.07 1016.25 1015.98 1015.74 1015.19 1014.54 1013.90 1013.14 1012.26 1011.29 1010.34 1009.40 1008.63 1008.07 1007.94 1007.86 1007.97 1008.54 1009.26 1009.67 1010.49 1011.33 1011.81 1013.31 1014.23 1015.56 1016.27 1017.23
1030.53 1031.70 1032.60 1032.17 1029.99 1027.08 1022.31 1020.85 1020.57 1020.56 1019.65 1019.29 1018.82 1018.09 1017.63 1017.12 1016.53 1016.74 1016.84 1016.50 1015.98 1015.45 1014.80 1014.26 1013.53 1012.66 1011.85 1011.05 1010.32 1009.97 1009.77 1009.74 1009.80 1010.51 1011.31 1011.96 1012.30 1013.01 1013.57 1014.51 1015.87 1016.84 1017.49 1019.53
1030.16 1031.51 1033.20 1033.61 1032.13 1026.56 1021.73 1020.20 1019.76 1020.00 1018.89 1018.33 1018.53 1018.22 1017.68 1016.98 1016.26 1016.68 1017.17 1017.23 1016.93 1016.47 1015.88 1015.25 1014.61 1014.04 1013.34 1012.67 1012.20 1011.68 1011.63 1011.65 1011.90 1012.45 1013.07 1013.71 1013.99 1014.77 1015.21 1016.33 1017.68 1018.56 1019.23 1020.54
1030.69 1031.48 1033.12 1034.23 1032.33 1027.18 1021.46 1019.98 1019.37 1019.43 1018.93 1018.18 1018.54 1018.47 1018.20 1017.46 1017.07 1017.84 1017.90 1017.79 1017.51 1017.17 1016.63 1016.10 1015.58 1015.11 1014.66 1014.33 1013.80 1013.35 1013.56 1013.52 1014.10 1014.60 1015.03 1015.44 1015.90 1016.43 1017.04 1018.04 1019.26 1019.77 1020.72 1021.68
1031.28 1031.81 1032.57 1032.81 1031.01 1025.77 1021.23 1019.94 1019.41 1019.31 1018.65 1017.95 1018.31 1018.54 1018.53 1018.50 1019.02 1018.93 1018.76 1018.46 1018.33 1018.02 1017.47 1017.03 1016.68 1016.26 1015.93 1015.66 1015.17 1015.05 1015.28 1015.56 1016.12 1016.17 1016.51 1017.15 1017.76 1018.20 1018.74 1019.68 1020.57 1021.36 1021.96 1022.58
1029.40 1030.43 1030.95 1030.80 1029.13 1024.04 1020.05 1019.83 1019.05 1017.67 1017.44 1017.70 1018.11 1018.48 1018.68 1018.76 1018.92 1019.14 1019.12 1019.04 1018.94 1018.73 1018.45 1018.16 1017.85 1017.71 1017.45 1017.04 1016.61 1016.68 1016.91 1017.46 1017.36 1017.54 1018.04 1018.65 1019.20 1019.81 1020.27 1021.07 1021.96 1022.39 1022.71 1023.40
1027.76 1026.11 1026.45 1025.98 1022.50 1019.56 1018.74 1017.77 1017.18 1017.20 1017.34 1017.67 1018.12 1018.55 1018.90 1018.97 1019.14 1019.29 1019.43 1019.51 1019.61 1019.64 1019.59 1019.40 1019.13 1019.10 1019.02 1018.84 1018.66 1018.60 1019.00 1018.80 1018.72 1018.96 1019.59 1020.03 1020.54 1021.09 1021.66 1022.05 1022.54 1022.97 1023.44 1024.07
1025.45 1024.64 1024.30 1023.49 1018.87 1018.49 1017.92 1017.13 1017.21 1017.27 1017.36 1017.53 1018.19 1018.62 1018.93 1019.00 1019.22 1019.46 1019.63 1019.80 1020.05 1020.22 1020.31 1020.38 1020.14 1020.29 1020.52 1020.46 1020.23 1020.29 1020.32 1020.31 1020.40 1020.84 1021.37 1021.78 1022.02 1022.40 1022.74 1022.92 1023.19 1023.58 1024.25 1024.70
1023.63 1023.69 1022.46 1021.07 1018.54 1017.60 1017.01 1016.69 1016.73 1016.80 1017.21 1017.83 1018.44 1018.76 1018.94 1019.16 1019.39 1019.63 1019.88 1020.10 1020.42 1020.71 1020.86 1020.92 1021.01 1021.30 1021.55 1021.52 1021.51 1021.54 1021.45 1021.30 1021.49 1021.90 1022.31 1022.72 1023.14 1023.41 1023.75 1024.14 1024.29 1024.39 1024.68 1024.75
1021.63 1020.42 1020.23 1018.44 1016.65 1016.60 1016.33 1016.20 1016.68 1017.22 1017.80 1018.22 1018.72 1019.16 1019.19 1019.28 1019.48 1019.82 1020.19 1020.52 1020.80 1020.98 1021.23 1021.45 1021.67 1021.82 1022.14 1022.22 1022.40 1022.43 1022.21 1022.12 1022.31 1022.79 1023.09 1023.35 1023.51 1023.71 1023.95 1024.15 1024.35 1024.43 1024.55 1024.92
Wind_Speed
6 7 4 3 2 5 3 4 10 13 11 6 12 20 26 19 14 6 5 5 7 8 8 10 11 10 10 11 11 13 16 18 14 13 13 12 13 12 11 10 14 16 15 17
5 3 1 5 4 3 2 7 8 10 4 7 14 25 21 11 5 2 2 5 6 8 9 13 14 11 10 10 11 12 12 16 16 13 10 10 14 13 12 10 12 15 16 16
1 1 3 3 2 4 3 4 5 6 16 2 6 10 6 4 1 3 1 3 5 9 11 12 14 14 9 10 10 12 13 14 17 17 12 9 6 3 5 10 10 11 15 17
3 3 3 3 2 1 6 3 7 12 9 5 6 8 7 3 6 2 5 7 6 9 10 10 12 14 12 12 9 11 13 14 13 20 13 12 11 10 9 10 9 11 15 15
2 4 4 2 2 2 9 8 14 9 5 5 1 4 11 3 1 2 7 11 11 10 11 15 11 12 15 11 10 10 13 14 14 16 18 13 16 11 8 6 9 7 7 11
5 3 3 3 6 3 8 7 9 1 0 3 4 3 10 4 2 2 6 10 10 12 14 15 11 11 13 11 10 9 12 14 13 14 18 16 18 10 9 10 10 8 7 10
8 1 3 2 5 2 10 7 6 8 6 6 2 5 13 3 4 4 9 14 9 15 14 15 11 16 16 15 14 10 11 14 13 11 17 15 18 15 15 13 11 12 9 6
4 10 4 4 1 3 4 3 5 5 4 11 15 8 8 5 4 5 15 15 22 19 16 12 19 16 16 17 14 12 11 14 12 12 13 13 14 10 11 13 11 10 10 11
3 8 3 2 2 3 5 2 5 6 2 4 5 8 9 4 7 18 18 22 23 18 18 20 19 17 16 15 15 13 11 13 12 12 11 13 10 12 11 12 11 8 8 8
2 6 1 5 2 1 4 3 5 4 5 7 7 8 10 5 14 20 22 23 17 20 19 18 18 17 16 15 15 13 10 13 11 10 9 9 11 9 9 11 10 10 10 9
4 4 6 2 1 2 5 4 2 2 2 4 8 8 3 6 18 22 23 17 20 20 20 19 18 17 17 15 13 12 12 10 9 9 8 9 13 13 11 12 13 13 13 14
3 4 6 8 3 3 1 4 4 4 5 4 5 11 4 13 20 27 26 18 20 20 19 19 18 17 15 13 11 10 9 9 8 5 7 12 14 15 14 13 15 15 16 14
4 3 5 11 6 3 2 3 2 1 0 8 4 11 14 23 24 24 15 21 19 20 20 19 17 15 14 12 10 10 10 9 4 9 10 13 14 15 15 16 16 16 17 17
6 3 8 9 7 2 6 6 7 5 4 4 11 21 27 25 26 24 16 19 19 18 18 18 16 15 13 10 9 8 7 9 9 11 9 13 15 16 14 15 16 19 18 19
4 4 4 9 17 9 14 17 12 10 13 6 10 17 27 21 23 18 18 19 19 19 19 18 17 15 14 12 10 9 10 10 10 13 12 12 16 17 16 17 14 16 15 15
1 4 3 7 4 3 10 17 16 15 12 16 19 22 10 20 18 12 19 19 19 18 18 18 17 16 15 13 11 12 11 12 12 14 14 13 17 18 17 18 16 18 16 17
5 1 3 8 6 10 5 7 6 4 6 6 6 11 17 19 17 10 18 18 18 17 16 16 16 15 14 14 12 13 13 13 16 15 14 14 15 17 19 18 19 18 19 19
5 1 1 6 8 5 6 4 6 7 11 8 11 12 13 14 14 4 14 17 17 16 15 14 13 13 14 13 14 13 15 16 17 17 16 15 16 17 19 20 20 19 18 17
3 3 1 1 3 11 7 3 4 4 7 4 5 10 12 14 10 3 16 14 13 13 12 11 11 12 12 13 14 16 16 17 18 17 16 16 16 18 20 20 19 17 18 15
4 3 5 1 2 6 6 4 2 5 5 4 4 6 9 12 10 6 16 14 13 13 11 12 11 10 12 11 13 17 17 18 18 17 16 16 17 19 20 19 17 16 14 13
3 3 6 4 5 13 11 5 2 5 6 4 3 3 5 4 2 7 10 11 10 10 12 11 13 12 12 10 13 17 16 17 14 17 17 17 17 18 17 16 13 13 13 13
10 10 6 3 1 10 9 5 7 4 2 3 3 1 2 3 3 3 7 9 11 12 13 12 11 13 13 11 12 15 16 11 14 16 16 15 14 11 12 13 11 11 12 13
4 9 8 13 12 5 7 5 3 3 4 3 2 2 1 2 3 3 4 7 8 9 8 8 9 11 12 13 12 13 10 10 12 14 13 13 12 10 9 11 11 9 9 9
6 5 5 1 6 17 16 12 5 6 6 4 4 4 2 1 1 2 3 4 5 6 6 5 8 10 10 9 10 10 9 9 11 12 10 8 9 8 7 6 6 7 6 7
5 8 7 8 14 11 14 10 6 5 6 6 5 5 3 3 1 1 2 3 4 4 4 4 6 6 7 6 8 6 6 6 10 9 8 8 7 8 8 7 5 5 3 5
9 10 9 11 8 3 4 1 0 8 7 7 7 5 3 2 3 3 3 2 3 3 3 4 4 5 4 5 5 5 4 4 8 8 6 5 6 6 6 7 6 10 10 12
Wind_Direction
355 56 37 335 258 233 233 238 259 269 278 295 289 296 286 303 301 296 329 2 341 323 309 315 327 334 346 344 324 232 222 212 206 197 195 198 188 188 188 190 189 182 182 179
18 57 325 290 255 260 242 274 281 283 252 325 306 289 287 305 285 204 116 329 312 313 325 340 337 331 334 328 328 333 268 224 214 205 194 193 193 198 197 190 186 185 183 184
116 19 322 304 319 347 272 240 290 289 321 312 324 283 332 324 347 174 302 280 302 303 314 326 330 323 317 317 322 319 313 308 231 217 202 198 174 102 164 186 184 185 182 187
220 333 340 320 25 358 308 185 289 300 333 296 69 287 295 283 294 82 302 322 318 317 327 301 311 315 311 310 301 306 305 297 287 227 210 181 178 181 194 186 184 181 176 183
301 340 330 344 322 325 257 320 293 302 278 305 225 253 272 321 154 304 313 326 316 322 316 313 302 302 302 298 294 296 298 297 290 248 218 192 193 190 178 159 157 162 162 168
263 295 255 284 295 272 296 314 317 102 29 275 233 179 277 272 228 308 283 294 296 318 318 312 298 294 295 294 293 290 297 293 288 273 230 200 199 180 149 158 163 162 161 153
326 264 297 346 318 3 12 5 345 356 5 235 151 283 252 247 217 241 312 331 314 315 315 304 304 310 305 300 297 291 296 294 299 313 235 203 202 167 169 174 169 161 157 161
37 329 14 355 57 298 345 65 129 285 295 292 280 234 257 193 225 276 328 338 330 321 315 309 311 305 301 296 289 284 285 288 294 289 288 198 195 172 171 177 167 174 179 172
45 277 323 263 272 133 286 4 195 260 248 279 267 282 288 212 316 340 337 324 320 320 323 314 310 304 298 293 288 282 276 278 282 292 305 189 168 171 165 169 164 160 147 145
162 312 225 279 294 203 150 306 12 358 310 294 266 280 270 311 337 322 330 324 323 322 315 312 308 305 297 289 292 285 265 264 271 277 282 199 157 149 140 130 121 120 117 116
133 124 279 343 222 187 344 351 346 266 234 272 305 291 236 1 328 333 330 327 330 326 324 318 312 305 296 297 287 275 273 266 264 266 282 140 118 111 106 111 113 113 113 114
167 172 275 254 259 281 265 224 152 127 301 268 268 270 296 336 340 336 327 337 332 328 324 320 318 311 307 304 299 291 281 269 258 241 133 120 113 114 113 112 112 112 106 104
186 287 335 344 4 13 246 189 183 106 77 238 273 277 315 328 336 332 330 336 332 330 329 328 327 324 319 317 311 298 272 244 171 126 129 117 116 115 118 118 118 115 115 109
159 175 178 204 218 109 287 273 279 161 242 268 247 287 312 328 330 331 342 336 333 334 333 334 336 336 333 336 336 337 13 105 101 101 107 114 112 114 115 114 117 117 116 119
149 229 202 257 267 272 268 266 258 209 230 251 274 300 304 333 326 329 338 333 338 342 343 344 345 345 347 360 5 27 43 70 87 95 95 106 110 110 108 110 110 104 102 101
88 273 315 288 300 171 273 266 258 245 248 251 265 282 341 328 321 338 342 342 344 345 345 347 349 354 359 10 25 42 50 64 79 87 89 100 103 105 107 102 103 97 98 94
152 135 34 271 335 309 322 230 208 239 207 201 271 297 328 321 328 349 343 349 345 347 349 351 355 1 8 16 32 50 58 70 76 76 81 88 95 96 97 95 92 92 90 89
123 129 117 276 338 5 245 283 218 228 258 240 268 291 309 310 307 356 356 349 348 348 353 356 2 9 16 28 39 53 63 68 73 76 76 81 89 90 92 93 89 90 86 98
186 164 287 141 249 295 303 202 167 157 284 214 262 297 313 320 308 230 2 354 348 350 357 360 10 19 28 37 49 59 62 70 71 73 75 81 85 91 90 89 92 94 94 89
143 135 123 60 143 226 241 139 99 116 294 197 234 298 331 336 15 336 343 351 358 359 8 10 15 27 31 40 59 67 67 68 70 75 78 80 83 85 86 90 93 94 93 96
156 194 208 194 250 284 253 217 138 78 241 209 205 291 330 9 214 304 330 358 3 8 11 19 27 31 34 43 66 69 72 71 78 80 80 78 82 86 87 90 93 101 106 106
165 164 200 123 207 288 177 93 180 191 165 165 168 215 295 312 357 330 354 4 6 14 16 19 34 30 28 38 64 75 70 77 82 83 83 84 86 91 95 98 106 109 110 104
242 193 180 188 214 248 206 236 177 162 185 170 157 178 251 314 21 17 9 18 17 19 25 23 44 48 35 36 45 57 45 69 83 85 86 88 92 96 105 115 114 106 106 111
237 178 225 116 260 232 242 247 218 205 216 156 153 170 193 134 37 78 58 42 38 30 30 13 48 50 44 32 52 59 59 67 79 82 81 84 90 88 80 84 89 103 114 114
198 144 192 264 279 266 261 237 216 212 162 137 144 164 167 162 149 132 116 90 71 58 35 28 67 69 62 43 49 32 42 72 81 78 78 77 72 74 74 61 80 93 78 138
187 188 179 221 225 173 245 357 335 194 171 166 154 155 168 216 166 149 122 89 96 89 62 65 63 84 81 74 63 49 52 70 105 102 103 113 118 119 125 123 116 117 127 137